Estación de Freirina

Ultimos registro cada 15 minutos 47
Estación Fecha / Hora Temperatura Humedad Lluvia Velocidad Dirección Radiación Presion
47 Freirina 31-08-2026 11:30 24,1 46,9 0 0 178 769,4 0
46 Freirina 31-08-2026 11:15 23,1 49,1 0 0 184 754,4 0
45 Freirina 31-08-2026 11:00 23,5 53,3 0 0 184 738,1 0
44 Freirina 31-08-2026 10:45 21,7 57,7 0 0,5 168 720,6 0
43 Freirina 31-08-2026 10:30 21,6 63,3 0 0 159 695,6 0
42 Freirina 31-08-2026 10:15 21,2 67,6 0 0 150 665,6 0
41 Freirina 31-08-2026 10:00 20,3 73,5 0 0 138 635,6 0
40 Freirina 31-08-2026 09:45 18,9 81,3 0 0,5 122 599,4 0
39 Freirina 31-08-2026 09:30 17,6 88,1 0 0 125 561,9 0
38 Freirina 31-08-2026 09:15 16,4 91,8 0 0 136 520,6 0
37 Freirina 31-08-2026 09:00 15,1 93,6 0 0 126 100,6 0
36 Freirina 31-08-2026 08:45 14,2 94,6 0 0 133 30,6 0
35 Freirina 31-08-2026 08:30 13,5 95 0 0 166 28,1 0
34 Freirina 31-08-2026 08:15 12,4 95,3 0 0 185 26,9 0
33 Freirina 31-08-2026 08:00 11,8 95,5 0 0 188 28,1 0
32 Freirina 31-08-2026 07:45 11,4 95,5 0 0 190 19,4 0
31 Freirina 31-08-2026 07:30 11,2 95,7 0 0 192 15,6 0
30 Freirina 31-08-2026 07:15 10,4 95,5 0 0 184 9,4 0
29 Freirina 31-08-2026 07:00 10,7 95,4 0 0 178 1,9 0
28 Freirina 31-08-2026 06:45 11 95,4 0 0 178 0,6 0
27 Freirina 31-08-2026 06:30 11,3 95,2 0 0 150 0,6 0
26 Freirina 31-08-2026 06:15 11,2 95,2 0 0 128 0,6 0
25 Freirina 31-08-2026 06:00 11 94,9 0 0 128 0,6 0
24 Freirina 31-08-2026 05:45 10,9 94,8 0 0 128 0,6 0
23 Freirina 31-08-2026 05:30 11,2 94,6 0 0 128 0,6 0
22 Freirina 31-08-2026 05:15 11 94,7 0 0 128 0,6 0
21 Freirina 31-08-2026 05:00 11,2 94,4 0 0 128 0,6 0
20 Freirina 31-08-2026 04:45 11,6 94,3 0 0 128 0,6 0
19 Freirina 31-08-2026 04:30 11,5 94,2 0 0 128 0,6 0
18 Freirina 31-08-2026 04:15 11,8 94,2 0 0 128 0,6 0
17 Freirina 31-08-2026 04:00 12,1 94,2 0 0 157 0,6 0
16 Freirina 31-08-2026 03:45 12 94,3 0 0 191 0,6 0
15 Freirina 31-08-2026 03:30 12,2 94,4 0 0 174 0,6 0
14 Freirina 31-08-2026 03:15 12,2 94,4 0 0 174 0,6 0
13 Freirina 31-08-2026 03:00 12,2 94,5 0 0 185 0,6 0
12 Freirina 31-08-2026 02:45 12,4 94,4 0 0 108 0,6 0
11 Freirina 31-08-2026 02:30 12 94,6 0 0 58 0,6 0
10 Freirina 31-08-2026 02:15 12,2 94,4 0 0 58 0,6 0
9 Freirina 31-08-2026 02:00 12,1 94,5 0 0 58 0,6 0
8 Freirina 31-08-2026 01:45 11,6 94,2 0 0 58 0,6 0
7 Freirina 31-08-2026 01:30 11,6 94,1 0 0 58 0,6 0
6 Freirina 31-08-2026 01:15 12 93,9 0 0 58 0,6 0
5 Freirina 31-08-2026 01:00 12,3 93,7 0 0 41 0,6 0
4 Freirina 31-08-2026 00:45 11,9 93,6 0 0 358 0,6 0
3 Freirina 31-08-2026 00:30 11,7 93,6 0 0 358 0,6 0
2 Freirina 31-08-2026 00:15 11,6 93,3 0 0 358 0,6 0
1 Freirina 31-08-2026 00:00 11,3 93,1 0 0 358 0,6 0